Weather in Tobachnoe

Russia / Republic of Crimea     44°54′10″N   33°40′34″E
temp.,
°C
wind,
m/s
gust,
m/s
humid.,
%
clouds,
%
prec.,
mm/h
press.,
hPa
HPBL,
m
9 december, thu
thu900:00+8sw91281100 0.1 1010810
03:00+8sw81177100 0.1 1011979
06:00+8sw81080100 0.1 10131078
09:00+9sw71081100 0.3 1014917
12:00+9sw71084100 0.7 10161131
15:00+9sw6978100 1.4 10161060
18:00+8sw477943 0.1 1018247
21:00+7s37865 0.1 1019142
10 december, fri
fri1000:00+7s36825 0.0 1019121
03:00+7sse45886 0.0 102090
06:00+7ese338513 0.0 101939
09:00+8ese34780 0.0 102051
12:00+13se35590 0.0 1019253
15:00+15ese35535 0.0 1018307
18:00+11ese45685 0.0 101770
21:00+9ese46685 0.0 101676
11 december, sat
sat1100:00+9ese3467100 0.0 101547
03:00+9ene3467100 0.0 101450
06:00+9ene226994 0.0 101318
09:00+10s3371100 0.0 101745
12:00+12sw56742 0.0 1018666
15:00+13sw3462100 0.0 1018532
18:00+10e117466 0.0 101910
21:00+9e457396 0.0 102065
12 december, sun
sun1200:00+9e4471100 0.0 101950
03:00+10e3562100 0.0 101858
06:00+11e4559100 0.0 101676
09:00+11e4761100 0.0 1016112
12:00+13ene5761100 0.0 1015312
15:00+14e4756100 0.0 1013311
18:00+12e4765100 0.0 1013138
21:00+11ene2265100 0.0 101326
13 december, mon
mon1300:00+11w1168100 0.0 101313
03:00+9wnw1182100 0.0 101421
06:00+8e119099 0.0 101423
09:00+10sse0189100 0.0 101530
12:00+11nne1178100 0.0 1015494
15:00+12nne2273100 0.0 1014542
18:00+10ene338599 0.0 101535
21:00+9ene339081 0.0 101547